Weather in Chunoyar

Russia / Krasnoyarsk Krai     57°26′58″N   97°19′35″E
temp.,
°C
wind,
m/s
gust,
m/s
humid.,
%
clouds,
%
prec.,
mm/h
press.,
hPa
HPBL,
m
28 november, sun
sun2801:00−11ssw41289100 0.3 1030699
04:00−9ssw41093100 0.5 1027882
07:00−8ssw41193100 1.0 1024869
10:00−7sw41093100 0.5 10221042
13:00−7wsw4991100 1.1 10211010
16:00−7wsw41091100 0.2 1023815
19:00−7wsw41092100 0.4 1024768
22:00−7wsw41294100 0.2 1024686
29 november, mon
mon2901:00−6wsw51293100 0.8 1024838
04:00−7wsw51392100 0.3 1024861
07:00−7w61489100 0.5 1025891
10:00−8wsw61391100 0.2 1027937
13:00−7w51288100 0.3 10281121
16:00−7w41190100 0.1 1029981
19:00−8wsw3992100 0.3 1030609
22:00−8sw2795100 0.1 1029403
30 november, tue
tue3001:00−8sw2995100 0.6 1027475
04:00−7sw31094100 0.4 1025564
07:00−6wsw41292100 0.6 1024610
10:00−6sw51388100 0.0 1022683
13:00−5wsw61477100 0.0 1020825
16:00−5wsw51574100 0.0 1019815
19:00−5wsw61585100 0.0 1019911
22:00−6wsw61491100 0.1 1019875
1 december, wed
wed101:00−6wsw51491100 0.3 1018884
04:00−6wsw61490100 0.3 1018929
07:00−6w51489100 0.4 1019862
10:00−7w51388100 0.1 1021894
13:00−6w51286100 0.1 1023914
16:00−6w41088100 0.1 1025776
19:00−7wsw2794100 0.1 1025454
22:00−7ssw2596100 0.8 1024300
2 december, thu
thu201:00−7s2794100 1.3 1022344
04:00−7sw31187100 0.1 1019596
07:00−5wsw4128659 0.1 1018696
10:00−5wsw51487100 0.0 1018731
13:00−4wsw41393100 0.1 1018738
16:00−3wsw41293100 0.3 1018696
19:00−3wsw41492100 0.8 1017670
22:00−3wsw41380100 0.1 1016628